User: anonymous   Login
Location: Bun Machan
(52.1403°N, 7.3744°W)
Time: 21:56:10
(UTC+00:00)
Language:

Cosmos 1674 Rocket - Orbit

View from above orbital plane
View from above orbital plane
View from above satellite
View from above satellite

Ground track
Ground track

The orbit data is extracted from the following two-line orbital elements,

1 15945U 85069B   20270.46153046  .00000091  00000-0  80282-5 0  9997
2 15945  82.5246  91.6716 0018260 292.3382  67.5898 14.84045667898596
Epoch (UTC): 26 September 2020 11:04:36
Eccentricity: 0.0018260
inclination: 82.5246°
perigee height: 604 km
apogee height: 629 km
right ascension of ascending node: 91.6716°
argument of perigee: 292.3382°
revolutions per day: 14.84045667
mean anomaly at epoch: 67.5898°
orbit number at epoch: 89859

The dashed part of the orbit path shows where the satellite is in the earth's shadow,  

DLR